This is the latest recevied weather packets stored in our database for station/object GW1497. If no packets are shown the sender has not sent any weather packets the latest 10 day(s).
| Time | Temp. | Humidity | Pressure | Rain* | Wind** | Luminosity | Snow |
|---|---|---|---|---|---|---|---|
| 1778194280 | 15.56° C | 38% | 1013.8 hPa | 0 mm | - | - | - |
| 1778193927 | 15.56° C | 36% | 1013.8 hPa | 0 mm | - | - | - |
| 1778193558 | 15.56° C | 41% | 1013.8 hPa | 0 mm | - | - | - |
| 1778192839 | 15.56° C | 37% | 1013.8 hPa | 0 mm | - | - | - |
| 1778185312 | 16.67° C | 38% | 1012.8 hPa | 0 mm | - | - | - |
| 1778182052 | 15° C | 45% | 1013.8 hPa | 0 mm | - | - | - |
| 1778174852 | 14.44° C | 52% | 1014.5 hPa | 0 mm | - | - | - |
| 1778173752 | 15° C | 45% | 1014.5 hPa | 0 mm | - | - | - |
| 1778172695 | 14.44° C | 52% | 1014.5 hPa | 0 mm | - | - | - |
| 1778156868 | 10° C | 80% | 1016.2 hPa | 0 mm | - | - | - |
| 1778156487 | 10° C | 84% | 1016.2 hPa | 0 mm | - | - | - |
| 1778153606 | 7.22° C | 98% | 1016.2 hPa | 0 mm | - | - | - |
| 1778152513 | 6.67° C | 99% | 1015.9 hPa | 0 mm | - | - | - |
| 1778148212 | 6.67° C | 95% | 1015.2 hPa | 0 mm | - | - | - |
| 1778146424 | 7.78° C | 87% | 1015.2 hPa | 0 mm | - | - | - |
| 1778145310 | 7.78° C | 87% | 1015.2 hPa | 0 mm | - | - | - |
| 1778143165 | 7.78° C | 95% | 1015.2 hPa | 0 mm | - | - | - |
| 1778141017 | 8.33° C | 86% | 1015.2 hPa | 0 mm | - | - | - |
| 1778137390 | 9.44° C | 80% | 1015.5 hPa | 0 mm | - | - | - |
| 1778134169 | 10° C | 90% | 1015.5 hPa | 0 mm | - | - | - |
| 1778131308 | 10° C | 95% | 1015.5 hPa | 0 mm | - | - | - |
| 1778130222 | 10° C | 96% | 1015.9 hPa | 0 mm | - | - | - |
| 1778125518 | 10° C | 95% | 1015.9 hPa | 21.84 mm | - | - | - |
| 1778120141 | 11.67° C | 98% | 1014.9 hPa | 21.84 mm | - | - | - |
| 1778117970 | 11.67° C | 97% | 1014.9 hPa | 21.84 mm | - | - | - |
* Rain since midnight (hover to see other rain measurements)
** Current wind speed in m/s (hover to see current wind gust speed)